• In Deutschland
  • Länderverzeichnis
  • Für 7 Tage
  • Wassertemperatur
  • Satellitenkarten
  • Wetterkarte
  • Widgets
  • user-avatar
    Anmelden

    Stündliche Wetter San Juan

    Heute, 26 Juni, Montag

    Zeit Temperatur Niederschläge Wind Luftdruck Luftfeuchtigkeit
    00:00 +13°C° 0 mm 4 m/S 700 mmHg 69%
    01:00 +12°C° 0 mm 4 m/S 700 mmHg 71%
    02:00 +12°C° 0 mm 4 m/S 700 mmHg 71%
    03:00 +12°C° 0 mm 3 m/S 700 mmHg 72%
    04:00 +12°C° 0 mm 3 m/S 700 mmHg 72%
    05:00 +11°C° 0 mm 3 m/S 700 mmHg 72%
    06:00 +11°C° 0 mm 3 m/S 700 mmHg 72%
    07:00 +11°C° 0 mm 3 m/S 700 mmHg 73%
    08:00 +13°C° 0 mm 3 m/S 700 mmHg 69%
    09:00 +14°C° 0 mm 3 m/S 701 mmHg 65%
    10:00 +15°C° 0 mm 4 m/S 701 mmHg 62%
    11:00 +17°C° 0 mm 4 m/S 701 mmHg 61%
    12:00 +17°C° 0 mm 4 m/S 700 mmHg 60%
    13:00 +18°C° 0 mm 4 m/S 700 mmHg 60%
    14:00 +16°C° 0,1 mm 5 m/S 700 mmHg 65%
    15:00 +15°C° 0,1 mm 5 m/S 700 mmHg 71%
    16:00 +14°C° 0,1 mm 5 m/S 700 mmHg 76%
    17:00 +14°C° 0,2 mm 5 m/S 701 mmHg 79%
    18:00 +13°C° 0,2 mm 5 m/S 702 mmHg 83%
    19:00 +13°C° 0,2 mm 5 m/S 702 mmHg 86%
    20:00 +12°C° 0,2 mm 4 m/S 703 mmHg 86%
    21:00 +12°C° 0,2 mm 4 m/S 703 mmHg 87%
    22:00 +12°C° 0,2 mm 4 m/S 704 mmHg 88%
    23:00 +12°C° 0,1 mm 4 m/S 704 mmHg 88%

    Morgen, 27 Juni, Dienstag

    Zeit Temperatur Niederschläge Wind Luftdruck Luftfeuchtigkeit
    00:00 +11°C° 0,1 mm 3 m/S 704 mmHg 88%
    01:00 +11°C° 0,1 mm 3 m/S 705 mmHg 88%
    02:00 +11°C° 0 mm 3 m/S 705 mmHg 87%
    03:00 +10°C° 0 mm 3 m/S 706 mmHg 86%
    04:00 +10°C° 0 mm 3 m/S 706 mmHg 86%
    05:00 +10°C° 0 mm 3 m/S 707 mmHg 85%
    06:00 +10°C° 0 mm 3 m/S 707 mmHg 85%
    07:00 +9°C° 0 mm 3 m/S 708 mmHg 84%
    08:00 +10°C° 0 mm 3 m/S 708 mmHg 79%
    09:00 +11°C° 0 mm 3 m/S 708 mmHg 73%
    10:00 +12°C° 0 mm 4 m/S 708 mmHg 67%
    11:00 +13°C° 0 mm 4 m/S 708 mmHg 65%
    12:00 +13°C° 0 mm 4 m/S 708 mmHg 63%
    13:00 +14°C° 0 mm 4 m/S 707 mmHg 61%
    14:00 +13°C° 0 mm 4 m/S 707 mmHg 63%
    15:00 +13°C° 0 mm 4 m/S 707 mmHg 64%
    16:00 +12°C° 0 mm 4 m/S 708 mmHg 66%
    17:00 +12°C° 0 mm 4 m/S 708 mmHg 71%
    18:00 +11°C° 0 mm 3 m/S 709 mmHg 75%
    19:00 +10°C° 0 mm 3 m/S 709 mmHg 79%
    20:00 +10°C° 0 mm 3 m/S 710 mmHg 81%
    21:00 +9°C° 0 mm 2 m/S 710 mmHg 82%
    22:00 +9°C° 0 mm 2 m/S 710 mmHg 84%
    23:00 +8°C° 0 mm 2 m/S 710 mmHg 85%

    übermorgen, 28 Juni, Mittwoch

    Zeit Temperatur Niederschläge Wind Luftdruck Luftfeuchtigkeit
    00:00 +8°C° 0 mm 2 m/S 710 mmHg 85%
    01:00 +7°C° 0 mm 2 m/S 709 mmHg 86%
    02:00 +8°C° 0 mm 1 m/S 709 mmHg 85%
    03:00 +8°C° 0 mm 1 m/S 709 mmHg 84%
    04:00 +8°C° 0 mm 1 m/S 708 mmHg 83%
    05:00 +8°C° 0 mm 1 m/S 708 mmHg 80%
    06:00 +8°C° 0 mm 1 m/S 708 mmHg 78%
    07:00 +8°C° 0 mm 1 m/S 708 mmHg 76%
    08:00 +10°C° 0 mm 1 m/S 708 mmHg 67%
    09:00 +12°C° 0 mm 1 m/S 708 mmHg 58%
    10:00 +14°C° 0 mm 1 m/S 708 mmHg 49%
    11:00 +15°C° 0 mm 1 m/S 708 mmHg 44%
    12:00 +16°C° 0 mm 1 m/S 707 mmHg 40%
    13:00 +18°C° 0 mm 1 m/S 706 mmHg 36%
    14:00 +18°C° 0 mm 1 m/S 706 mmHg 36%
    15:00 +16°C° 0 mm 1 m/S 706 mmHg 37%
    16:00 +16°C° 0 mm 1 m/S 706 mmHg 37%
    17:00 +15°C° 0 mm 1 m/S 706 mmHg 41%
    18:00 +13°C° 0 mm 1 m/S 706 mmHg 45%
    19:00 +12°C° 0 mm 1 m/S 707 mmHg 49%
    20:00 +11°C° 0 mm 1 m/S 707 mmHg 48%
    21:00 +11°C° 0 mm 1 m/S 707 mmHg 48%
    22:00 +11°C° 0 mm 1 m/S 708 mmHg 48%
    23:00 +11°C° 0 mm 1 m/S 708 mmHg 46%

    29 Juni, Donnerstag

    Zeit Temperatur Niederschläge Wind Luftdruck Luftfeuchtigkeit
    00:00 +9°C° 0 mm 2 m/S 708 mmHg 44%
    01:00 +9°C° 0 mm 2 m/S 708 mmHg 42%
    02:00 +9°C° 0 mm 2 m/S 707 mmHg 41%
    03:00 +9°C° 0 mm 3 m/S 707 mmHg 40%
    04:00 +9°C° 0 mm 3 m/S 707 mmHg 38%
    05:00 +9°C° 0 mm 3 m/S 707 mmHg 38%
    06:00 +9°C° 0 mm 3 m/S 707 mmHg 37%
    07:00 +9°C° 0 mm 3 m/S 708 mmHg 37%
    08:00 +12°C° 0 mm 4 m/S 708 mmHg 32%
    09:00 +15°C° 0 mm 4 m/S 708 mmHg 27%
    10:00 +18°C° 0 mm 4 m/S 708 mmHg 23%
    11:00 +19°C° 0 mm 3 m/S 707 mmHg 21%
    12:00 +20°C° 0 mm 3 m/S 707 mmHg 19%
    13:00 +21°C° 0 mm 3 m/S 706 mmHg 17%
    14:00 +21°C° 0 mm 2 m/S 706 mmHg 18%
    15:00 +20°C° 0 mm 2 m/S 706 mmHg 20%
    16:00 +19°C° 0 mm 2 m/S 706 mmHg 21%
    17:00 +18°C° 0 mm 1 m/S 707 mmHg 25%
    18:00 +15°C° 0 mm 1 m/S 707 mmHg 28%
    19:00 +14°C° 0 mm 1 m/S 707 mmHg 31%
    20:00 +13°C° 0 mm 1 m/S 707 mmHg 31%
    21:00 +13°C° 0 mm 1 m/S 707 mmHg 31%
    22:00 +12°C° 0 mm 1 m/S 707 mmHg 31%
    23:00 +12°C° 0 mm 1 m/S 707 mmHg 31%

    30 Juni, Freitag

    Zeit Temperatur Niederschläge Wind Luftdruck Luftfeuchtigkeit
    00:00 +11°C° 0 mm 1 m/S 707 mmHg 32%
    01:00 +11°C° 0 mm 1 m/S 706 mmHg 32%
    02:00 +11°C° 0 mm 1 m/S 707 mmHg 34%
    03:00 +10°C° 0 mm 1 m/S 707 mmHg 36%
    04:00 +10°C° 0 mm 1 m/S 707 mmHg 38%
    05:00 +10°C° 0 mm 1 m/S 707 mmHg 39%
    06:00 +10°C° 0 mm 1 m/S 708 mmHg 41%
    07:00 +9°C° 0 mm 2 m/S 708 mmHg 42%
    08:00 +12°C° 0 mm 2 m/S 709 mmHg 39%
    09:00 +14°C° 0 mm 3 m/S 709 mmHg 35%
    10:00 +17°C° 0 mm 4 m/S 710 mmHg 32%
    11:00 +17°C° 0 mm 4 m/S 710 mmHg 32%
    12:00 +18°C° 0 mm 4 m/S 709 mmHg 33%
    13:00 +18°C° 0 mm 4 m/S 709 mmHg 33%
    14:00 +17°C° 0 mm 4 m/S 709 mmHg 36%
    15:00 +17°C° 0 mm 4 m/S 709 mmHg 39%
    16:00 +16°C° 0 mm 3 m/S 709 mmHg 41%
    17:00 +14°C° 0 mm 3 m/S 710 mmHg 46%
    18:00 +12°C° 0 mm 3 m/S 711 mmHg 50%
    19:00 +11°C° 0 mm 3 m/S 711 mmHg 55%
    20:00 +12°C° 0 mm 2 m/S 711 mmHg 56%
    21:00 +10°C° 0 mm 2 m/S 712 mmHg 58%
    22:00 +10°C° 0 mm 2 m/S 712 mmHg 60%
    23:00 +9°C° 0 mm 2 m/S 712 mmHg 63%

    1 Juli, Samstag

    Zeit Temperatur Niederschläge Wind Luftdruck Luftfeuchtigkeit
    00:00 +9°C° 0 mm 2 m/S 712 mmHg 66%
    01:00 +8°C° 0 mm 2 m/S 711 mmHg 69%
    02:00 +9°C° 0 mm 1 m/S 711 mmHg 71%
    03:00 +9°C° 0 mm 1 m/S 711 mmHg 73%
    04:00 +8°C° 0 mm 1 m/S 711 mmHg 76%
    05:00 +8°C° 0 mm 1 m/S 711 mmHg 76%
    06:00 +8°C° 0 mm 1 m/S 711 mmHg 77%
    07:00 +8°C° 0 mm 1 m/S 712 mmHg 78%
    08:00 +10°C° 0 mm 1 m/S 712 mmHg 69%
    09:00 +12°C° 0 mm 1 m/S 712 mmHg 60%
    10:00 +14°C° 0 mm 1 m/S 713 mmHg 51%
    11:00 +16°C° 0 mm 1 m/S 712 mmHg 48%
    12:00 +17°C° 0 mm 2 m/S 711 mmHg 45%
    13:00 +18°C° 0 mm 2 m/S 710 mmHg 42%
    14:00 +18°C° 0 mm 2 m/S 710 mmHg 45%
    15:00 +17°C° 0 mm 2 m/S 710 mmHg 47%
    16:00 +18°C° 0 mm 1 m/S 710 mmHg 49%
    17:00 +15°C° 0 mm 1 m/S 710 mmHg 55%
    18:00 +14°C° 0 mm 1 m/S 710 mmHg 61%
    19:00 +12°C° 0 mm 1 m/S 710 mmHg 68%
    20:00 +12°C° 0 mm 1 m/S 710 mmHg 69%
    21:00 +12°C° 0 mm 1 m/S 711 mmHg 71%
    22:00 +12°C° 0 mm 2 m/S 711 mmHg 73%
    23:00 +10°C° 0 mm 2 m/S 710 mmHg 73%
    Mehr zeigen